Time,TemperatureF,DewpointF,PressureIn,WindDirection,WindDirectionDegrees,WindSpeedMPH,WindSpeedGustMPH,Humidity,HourlyPrecipIn,Conditions,Clouds,dailyrainin,SoftwareType,DateUTC
2013-06-23 00:02:00,70.6,52.7,-100.00,SSE,158,0.0,0.0,53,-99.99,,,-99.99,WSDL version 423,2013-06-23 04:02:00,
2013-06-23 00:05:00,70.5,52.6,-100.00,SSE,158,0.0,0.0,53,-99.99,,,-99.99,WSDL version 423,2013-06-23 04:05:00,
2013-06-23 00:11:00,70.5,52.9,-100.00,SSE,158,0.0,0.0,54,-99.99,,,-99.99,WSDL version 423,2013-06-23 04:11:00,
2013-06-23 00:14:00,70.5,53.1,-100.00,SSE,158,0.0,0.0,54,0.00,,,0.00,WSDL version 423,2013-06-23 04:14:00,
2013-06-23 00:20:00,70.3,52.9,-100.00,SSE,158,0.0,0.0,54,0.00,,,0.00,WSDL version 423,2013-06-23 04:20:00,
2013-06-23 00:26:00,70.1,52.7,-100.00,SSE,158,0.0,0.0,54,0.00,,,0.00,WSDL version 423,2013-06-23 04:26:00,
2013-06-23 00:29:00,70.0,52.9,-100.00,SSE,158,0.0,0.0,55,0.00,,,0.00,WSDL version 423,2013-06-23 04:29:00,
2013-06-23 00:35:00,70.0,53.1,-100.00,SSE,158,0.0,0.0,55,-99.99,,,-99.99,WSDL version 423,2013-06-23 04:35:00,
2013-06-23 00:41:00,69.8,52.9,-100.00,SSE,158,0.0,0.0,55,0.00,,,0.00,WSDL version 423,2013-06-23 04:41:00,
2013-06-23 00:47:00,69.8,53.0,-100.00,SSE,158,0.0,0.0,56,0.00,,,0.00,WSDL version 423,2013-06-23 04:47:00,
2013-06-23 00:53:00,69.6,53.2,-100.00,SSE,158,0.0,0.0,56,0.00,,,0.00,WSDL version 423,2013-06-23 04:53:00,
2013-06-23 00:59:00,69.4,53.1,-100.00,SSE,158,0.0,0.0,56,-99.99,,,-99.99,WSDL version 423,2013-06-23 04:59:00,
2013-06-23 01:05:00,69.4,53.5,-100.00,SE,135,0.0,0.0,57,-99.99,,,-99.99,WSDL version 423,2013-06-23 05:05:00,
2013-06-23 01:11:00,69.3,53.4,-100.00,SE,135,0.0,0.0,57,0.00,,,0.00,WSDL version 423,2013-06-23 05:11:00,
2013-06-23 01:17:00,69.3,53.6,-100.00,SE,135,0.0,0.0,58,-99.99,,,-99.99,WSDL version 423,2013-06-23 05:17:00,
2013-06-23 01:23:00,69.3,53.9,-100.00,SE,135,0.0,0.0,58,-99.99,,,-99.99,WSDL version 423,2013-06-23 05:23:00,
2013-06-23 01:29:00,69.1,53.8,-100.00,SE,135,0.0,0.0,58,-99.99,,,-99.99,WSDL version 423,2013-06-23 05:29:00,
2013-06-23 01:35:00,69.1,53.7,-100.00,SE,135,0.0,0.0,58,-99.99,,,-99.99,WSDL version 423,2013-06-23 05:35:00,
2013-06-23 01:41:00,68.9,53.9,-100.00,SE,135,0.0,0.0,59,-99.99,,,-99.99,WSDL version 423,2013-06-23 05:41:00,
2013-06-23 01:47:00,68.8,53.9,-100.00,SE,135,0.0,0.0,59,-99.99,,,-99.99,WSDL version 423,2013-06-23 05:47:00,
2013-06-23 01:53:00,68.7,53.8,-100.00,SE,135,0.0,0.0,59,-99.99,,,-99.99,WSDL version 423,2013-06-23 05:53:00,
2013-06-23 01:59:00,68.7,53.8,-100.00,East,90,0.0,0.0,59,-99.99,,,-99.99,WSDL version 423,2013-06-23 05:59:00,
2013-06-23 02:05:00,68.7,54.3,-100.00,SE,135,0.0,0.0,60,-99.99,,,-99.99,WSDL version 423,2013-06-23 06:05:00,
2013-06-23 02:11:00,68.7,54.3,-100.00,SE,135,0.0,0.0,60,-99.99,,,-99.99,WSDL version 423,2013-06-23 06:11:00,
2013-06-23 02:17:00,68.5,54.1,-100.00,SE,135,0.0,0.0,60,-99.99,,,-99.99,WSDL version 423,2013-06-23 06:17:00,
2013-06-23 02:23:00,68.4,54.0,-100.00,SE,135,0.0,0.0,60,-99.99,,,-99.99,WSDL version 423,2013-06-23 06:23:00,
2013-06-23 02:29:00,68.1,54.1,-100.00,SE,135,0.0,0.0,61,-99.99,,,-99.99,WSDL version 423,2013-06-23 06:29:00,
2013-06-23 02:35:00,68.0,54.1,-100.00,SE,135,0.0,0.0,61,-99.99,,,-99.99,WSDL version 423,2013-06-23 06:35:00,
2013-06-23 02:41:00,68.0,54.1,-100.00,SE,135,0.0,0.0,61,-99.99,,,-99.99,WSDL version 423,2013-06-23 06:41:00,
2013-06-23 02:47:00,67.8,54.3,-100.00,SE,135,0.0,0.0,62,-99.99,,,-99.99,WSDL version 423,2013-06-23 06:47:00,
2013-06-23 02:53:00,67.6,54.2,-100.00,SE,135,0.0,0.0,62,-99.99,,,-99.99,WSDL version 423,2013-06-23 06:53:00,
2013-06-23 02:59:00,67.6,54.2,-100.00,SE,135,0.0,0.0,62,-99.99,,,-99.99,WSDL version 423,2013-06-23 06:59:00,
2013-06-23 03:05:00,67.4,54.1,-100.00,SE,135,0.0,0.0,63,-99.99,,,-99.99,WSDL version 423,2013-06-23 07:05:00,
2013-06-23 03:11:00,67.3,54.3,-100.00,SE,135,0.0,0.0,63,-99.99,,,-99.99,WSDL version 423,2013-06-23 07:11:00,
2013-06-23 03:17:00,67.3,54.3,-100.00,SE,135,0.0,0.0,63,-99.99,,,-99.99,WSDL version 423,2013-06-23 07:17:00,
2013-06-23 03:23:00,67.3,54.3,-100.00,SE,135,0.0,0.0,63,-99.99,,,-99.99,WSDL version 423,2013-06-23 07:23:00,
2013-06-23 03:29:00,67.3,54.3,-100.00,SE,135,0.0,0.0,64,-99.99,,,-99.99,WSDL version 423,2013-06-23 07:29:00,
2013-06-23 03:35:00,67.1,54.5,-100.00,SE,135,0.0,0.0,64,0.00,,,0.00,WSDL version 423,2013-06-23 07:35:00,
2013-06-23 03:41:00,67.1,54.5,-100.00,SE,135,0.0,0.0,64,-99.99,,,-99.99,WSDL version 423,2013-06-23 07:41:00,
2013-06-23 03:47:00,67.1,54.5,-100.00,SE,135,0.0,0.0,64,0.00,,,0.00,WSDL version 423,2013-06-23 07:47:00,
2013-06-23 03:53:00,66.9,54.4,-100.00,SE,135,0.0,0.0,64,-99.99,,,-99.99,WSDL version 423,2013-06-23 07:53:00,
2013-06-23 03:59:00,66.8,54.3,-100.00,SE,135,0.0,0.0,65,-99.99,,,-99.99,WSDL version 423,2013-06-23 07:59:00,
2013-06-23 04:05:00,66.7,54.6,-100.00,SE,135,0.0,0.0,65,-99.99,,,-99.99,WSDL version 423,2013-06-23 08:05:00,
2013-06-23 04:11:00,66.7,54.6,-100.00,SE,135,0.0,0.0,65,0.00,,,0.00,WSDL version 423,2013-06-23 08:11:00,
2013-06-23 04:17:00,66.6,54.4,-100.00,SE,135,0.0,0.0,65,-99.99,,,-99.99,WSDL version 423,2013-06-23 08:17:00,
2013-06-23 04:23:00,66.5,54.4,-100.00,SE,135,0.0,0.0,65,-99.99,,,-99.99,WSDL version 423,2013-06-23 08:23:00,
2013-06-23 04:29:00,66.4,54.3,-100.00,SE,135,0.0,0.0,65,-99.99,,,-99.99,WSDL version 423,2013-06-23 08:29:00,
2013-06-23 04:35:00,66.2,54.3,-100.00,SE,135,0.0,0.0,66,0.00,,,0.00,WSDL version 423,2013-06-23 08:35:00,
2013-06-23 04:41:00,66.2,54.5,-100.00,SE,135,0.0,0.0,66,0.00,,,0.00,WSDL version 423,2013-06-23 08:41:00,
2013-06-23 04:47:00,66.2,54.5,-100.00,SE,135,0.0,0.0,66,-99.99,,,-99.99,WSDL version 423,2013-06-23 08:47:00,
2013-06-23 04:53:00,66.0,54.6,-100.00,SE,135,0.0,0.0,67,0.00,,,0.00,WSDL version 423,2013-06-23 08:53:00,
2013-06-23 04:59:00,65.9,54.7,-100.00,SE,135,0.0,0.0,67,0.00,,,0.00,WSDL version 423,2013-06-23 08:59:00,
2013-06-23 05:05:00,65.8,54.6,-100.00,SE,135,0.0,0.0,67,0.00,,,0.00,WSDL version 423,2013-06-23 09:05:00,
2013-06-23 05:11:00,65.8,54.6,-100.00,SE,135,0.0,0.0,67,0.00,,,0.00,WSDL version 423,2013-06-23 09:11:00,
2013-06-23 05:17:00,65.7,54.4,-100.00,SE,135,0.0,0.0,67,0.00,,,0.00,WSDL version 423,2013-06-23 09:17:00,
2013-06-23 05:23:00,65.7,54.4,-100.00,SE,135,0.0,0.0,67,0.00,,,0.00,WSDL version 423,2013-06-23 09:23:00,
2013-06-23 05:29:00,65.5,54.7,-100.00,SE,135,0.0,0.0,68,-99.99,,,-99.99,WSDL version 423,2013-06-23 09:29:00,
2013-06-23 05:35:00,65.5,54.7,-100.00,SE,135,0.0,0.0,68,0.00,,,0.00,WSDL version 423,2013-06-23 09:35:00,
2013-06-23 05:41:00,65.5,54.7,-100.00,SE,135,0.0,0.0,68,0.00,,,0.00,WSDL version 423,2013-06-23 09:41:00,
2013-06-23 05:47:00,65.5,54.7,-100.00,SE,135,0.0,0.0,68,-99.99,,,-99.99,WSDL version 423,2013-06-23 09:47:00,
2013-06-23 05:53:00,65.4,54.6,-100.00,SE,135,0.0,0.0,68,-99.99,,,-99.99,WSDL version 423,2013-06-23 09:53:00,
2013-06-23 05:59:00,65.3,54.7,-100.00,SE,135,0.0,0.0,69,-99.99,,,-99.99,WSDL version 423,2013-06-23 09:59:00,
2013-06-23 06:05:00,65.3,54.9,-100.00,SE,135,0.0,0.0,69,-99.99,,,-99.99,WSDL version 423,2013-06-23 10:05:00,
2013-06-23 06:11:00,65.4,55.0,-100.00,SE,135,0.0,0.0,69,0.00,,,0.00,WSDL version 423,2013-06-23 10:11:00,
2013-06-23 06:17:00,65.5,55.1,-100.00,SE,135,0.0,0.0,69,0.00,,,0.00,WSDL version 423,2013-06-23 10:17:00,
2013-06-23 06:23:00,65.5,55.1,-100.00,SE,135,0.0,0.0,69,0.00,,,0.00,WSDL version 423,2013-06-23 10:23:00,
2013-06-23 06:30:00,65.6,55.2,-100.00,SE,135,0.0,0.0,69,0.00,,,0.00,WSDL version 423,2013-06-23 10:30:00,
2013-06-23 06:36:00,65.8,55.3,-100.00,SE,135,0.0,0.0,69,0.00,,,0.00,WSDL version 423,2013-06-23 10:36:00,
2013-06-23 06:42:00,65.9,55.5,-100.00,SE,135,0.0,0.0,69,0.00,,,0.00,WSDL version 423,2013-06-23 10:42:00,
2013-06-23 06:48:00,66.1,55.7,-100.00,SE,135,0.0,0.0,69,0.00,,,0.00,WSDL version 423,2013-06-23 10:48:00,
2013-06-23 06:54:00,66.3,55.9,-100.00,ESE,113,0.0,0.0,69,0.00,,,0.00,WSDL version 423,2013-06-23 10:54:00,
2013-06-23 07:00:00,66.6,56.1,-100.00,South,180,0.0,0.9,69,0.00,,,0.00,WSDL version 423,2013-06-23 11:00:00,
2013-06-23 07:06:00,66.7,56.3,-100.00,SE,141,0.0,0.0,69,0.00,,,0.00,WSDL version 423,2013-06-23 11:06:00,
2013-06-23 07:12:00,67.0,56.5,-100.00,South,169,0.0,0.0,69,0.00,,,0.00,WSDL version 423,2013-06-23 11:12:00,
2013-06-23 07:18:00,67.2,56.7,-100.00,South,180,0.0,0.0,69,0.00,,,0.00,WSDL version 423,2013-06-23 11:18:00,
2013-06-23 07:24:00,67.4,56.9,-100.00,South,191,0.0,0.0,69,0.00,,,0.00,WSDL version 423,2013-06-23 11:24:00,
2013-06-23 07:30:00,67.8,57.2,-100.00,NNE,25,0.0,0.0,69,0.00,,,0.00,WSDL version 423,2013-06-23 11:30:00,
2013-06-23 07:36:00,68.1,57.1,-100.00,East,90,0.0,0.0,68,0.00,,,0.00,WSDL version 423,2013-06-23 11:36:00,
2013-06-23 07:42:00,68.3,57.4,-100.00,South,180,0.0,0.0,68,0.00,,,0.00,WSDL version 423,2013-06-23 11:42:00,
2013-06-23 07:48:00,68.7,57.7,-100.00,South,177,0.0,0.9,68,0.00,,,0.00,WSDL version 423,2013-06-23 11:48:00,
2013-06-23 07:54:00,69.0,58.0,-100.00,South,191,0.0,1.1,68,0.00,,,0.00,WSDL version 423,2013-06-23 11:54:00,
2013-06-23 08:00:00,69.5,58.5,-100.00,SSE,167,0.0,1.1,68,0.00,,,0.00,WSDL version 423,2013-06-23 12:00:00,
2013-06-23 08:06:00,69.9,58.9,-100.00,SE,133,0.0,0.0,68,0.00,,,0.00,WSDL version 423,2013-06-23 12:06:00,
2013-06-23 08:12:00,70.3,59.2,-100.00,South,171,0.0,1.6,68,-99.99,,,-99.99,WSDL version 423,2013-06-23 12:12:00,
2013-06-23 08:18:00,70.7,59.6,-100.00,SSE,160,0.0,1.6,68,-99.99,,,-99.99,WSDL version 423,2013-06-23 12:18:00,
2013-06-23 08:24:00,71.1,60.0,-100.00,SSE,155,0.0,0.9,68,-99.99,,,-99.99,WSDL version 423,2013-06-23 12:24:00,
2013-06-23 08:30:00,71.5,60.2,-100.00,South,170,0.0,0.0,67,-99.99,,,-99.99,WSDL version 423,2013-06-23 12:30:00,
2013-06-23 08:36:00,72.0,60.4,-100.00,SE,143,0.0,0.0,67,-99.99,,,-99.99,WSDL version 423,2013-06-23 12:36:00,
2013-06-23 08:42:00,72.3,60.7,-100.00,SSW,212,0.0,0.0,67,-99.99,,,-99.99,WSDL version 423,2013-06-23 12:42:00,
2013-06-23 08:48:00,72.6,61.1,-100.00,South,178,0.0,0.0,67,0.00,,,0.00,WSDL version 423,2013-06-23 12:48:00,
2013-06-23 08:54:00,73.2,61.5,-100.00,East,80,0.0,0.0,66,-99.99,,,-99.99,WSDL version 423,2013-06-23 12:54:00,
2013-06-23 09:00:00,73.6,61.6,-100.00,West,276,0.0,0.0,66,0.00,,,0.00,WSDL version 423,2013-06-23 13:00:00,
2013-06-23 09:06:00,74.0,61.9,-100.00,SW,235,0.0,0.0,66,0.00,,,0.00,WSDL version 423,2013-06-23 13:06:00,
2013-06-23 09:12:00,74.4,62.3,-100.00,South,180,0.0,0.9,66,0.00,,,0.00,WSDL version 423,2013-06-23 13:12:00,
2013-06-23 09:18:00,75.1,62.7,-100.00,SSE,160,0.0,0.0,65,0.00,,,0.00,WSDL version 423,2013-06-23 13:18:00,
2013-06-23 09:24:00,75.7,63.0,-100.00,South,169,0.0,0.0,64,0.00,,,0.00,WSDL version 423,2013-06-23 13:24:00,
2013-06-23 09:30:00,76.2,63.1,-100.00,South,177,0.0,0.0,64,-99.99,,,-99.99,WSDL version 423,2013-06-23 13:30:00,
2013-06-23 09:36:00,76.6,63.5,-100.00,SE,138,0.0,1.1,64,0.00,,,0.00,WSDL version 423,2013-06-23 13:36:00,
2013-06-23 09:42:00,77.2,63.7,-100.00,South,180,0.0,1.1,63,0.00,,,0.00,WSDL version 423,2013-06-23 13:42:00,
2013-06-23 09:48:00,77.9,64.3,-100.00,South,174,0.0,0.0,63,-99.99,,,-99.99,WSDL version 423,2013-06-23 13:48:00,
2013-06-23 09:54:00,78.2,64.1,-100.00,South,180,0.0,1.3,62,-99.99,,,-99.99,WSDL version 423,2013-06-23 13:54:00,
2013-06-23 10:00:00,78.8,64.5,-100.00,SSW,200,0.0,1.1,61,-99.99,,,-99.99,WSDL version 423,2013-06-23 14:00:00,
2013-06-23 10:06:00,79.1,64.4,-100.00,South,188,0.3,2.2,60,0.00,,,0.00,WSDL version 423,2013-06-23 14:06:00,
2013-06-23 10:12:00,79.4,64.3,-100.00,SSE,148,0.0,1.3,60,-99.99,,,-99.99,WSDL version 423,2013-06-23 14:12:00,
2013-06-23 10:18:00,79.8,64.7,-100.00,South,173,0.0,5.4,60,0.00,,,0.00,WSDL version 423,2013-06-23 14:18:00,
2013-06-23 10:24:00,80.3,64.9,-100.00,West,267,0.0,0.0,59,-99.99,,,-99.99,WSDL version 423,2013-06-23 14:24:00,
2013-06-23 10:30:00,80.8,65.1,-100.00,SSE,163,0.0,0.0,59,0.00,,,0.00,WSDL version 423,2013-06-23 14:30:00,
2013-06-23 10:36:00,81.3,65.1,-100.00,South,175,0.0,2.5,58,-99.99,,,-99.99,WSDL version 423,2013-06-23 14:36:00,
2013-06-23 10:42:00,81.8,65.5,-100.00,SE,143,0.0,1.6,56,-99.99,,,-99.99,WSDL version 423,2013-06-23 14:42:00,
2013-06-23 10:48:00,82.3,65.5,-100.00,SSE,165,0.0,1.6,57,-99.99,,,-99.99,WSDL version 423,2013-06-23 14:48:00,
2013-06-23 10:54:00,82.7,65.4,-100.00,SSW,203,0.6,1.3,56,-99.99,,,-99.99,WSDL version 423,2013-06-23 14:54:00,
2013-06-23 11:04:00,83.6,66.1,-100.00,West,260,0.0,2.5,55,-99.99,,,-99.99,WSDL version 423,2013-06-23 15:04:00,
2013-06-23 11:10:00,83.8,66.2,-100.00,SW,222,0.0,3.1,55,-99.99,,,-99.99,WSDL version 423,2013-06-23 15:10:00,
2013-06-23 11:16:00,84.0,66.1,-100.00,SSW,203,0.0,3.1,55,-99.99,,,-99.99,WSDL version 423,2013-06-23 15:16:00,
2013-06-23 11:22:00,84.4,66.4,-100.00,SSW,203,0.0,3.4,55,-99.99,,,-99.99,WSDL version 423,2013-06-23 15:22:00,
2013-06-23 11:28:00,84.8,66.6,-100.00,South,183,0.0,2.5,54,-99.99,,,-99.99,WSDL version 423,2013-06-23 15:28:00,
2013-06-23 11:36:00,85.2,66.5,-100.00,South,180,0.0,0.0,54,-99.99,,,-99.99,WSDL version 423,2013-06-23 15:36:00,
2013-06-23 11:42:00,86.1,67.1,-100.00,East,82,0.0,0.0,53,-99.99,,,-99.99,WSDL version 423,2013-06-23 15:42:00,
2013-06-23 11:48:00,86.7,67.2,-100.00,South,170,0.0,0.0,52,-99.99,,,-99.99,WSDL version 423,2013-06-23 15:48:00,
2013-06-23 11:54:00,87.1,67.3,-100.00,South,191,0.0,0.9,51,-99.99,,,-99.99,WSDL version 423,2013-06-23 15:54:00,
2013-06-23 12:00:00,87.0,66.7,-100.00,WNW,283,0.0,0.0,51,-99.99,,,-99.99,WSDL version 423,2013-06-23 16:00:00,
2013-06-23 12:06:00,86.9,66.4,-100.00,South,174,0.9,7.4,51,-99.99,,,-99.99,WSDL version 423,2013-06-23 16:06:00,
2013-06-23 12:12:00,86.8,65.9,-100.00,SE,138,0.6,7.4,50,-99.99,,,-99.99,WSDL version 423,2013-06-23 16:12:00,
2013-06-23 12:18:00,87.2,66.4,-100.00,SW,225,0.0,1.3,51,-99.99,,,-99.99,WSDL version 423,2013-06-23 16:18:00,
2013-06-23 12:24:00,88.1,67.1,-100.00,SW,225,0.0,0.0,50,-99.99,,,-99.99,WSDL version 423,2013-06-23 16:24:00,
2013-06-23 12:30:00,88.4,67.3,-100.00,ENE,70,0.0,0.0,49,-99.99,,,-99.99,WSDL version 423,2013-06-23 16:30:00,
2013-06-23 12:36:00,88.1,66.5,-100.00,SSE,155,0.4,2.5,49,-99.99,,,-99.99,WSDL version 423,2013-06-23 16:36:00,
2013-06-23 12:42:00,87.9,66.2,-100.00,South,180,1.1,3.4,49,-99.99,,,-99.99,WSDL version 423,2013-06-23 16:42:00,
2013-06-23 12:48:00,88.1,66.5,-100.00,NW,315,0.0,6.5,49,0.00,,,0.00,WSDL version 423,2013-06-23 16:48:00,
2013-06-23 12:54:00,89.2,67.4,-100.00,WSW,257,0.0,0.0,49,-99.99,,,-99.99,WSDL version 423,2013-06-23 16:54:00,
2013-06-23 12:57:00,89.4,67.2,-100.00,SW,225,0.0,0.0,48,-99.99,,,-99.99,WSDL version 423,2013-06-23 16:57:00,
2013-06-23 13:00:00,89.4,67.0,-100.00,SE,135,0.6,3.6,47,-99.99,,,-99.99,WSDL version 423,2013-06-23 17:00:00,
2013-06-23 13:03:00,89.6,66.8,-100.00,NE,45,0.0,3.6,47,-99.99,,,-99.99,WSDL version 423,2013-06-23 17:03:00,
2013-06-23 13:09:00,89.7,66.1,-100.00,South,172,3.1,7.8,46,-99.99,,,-99.99,WSDL version 423,2013-06-23 17:09:00,
2013-06-23 13:15:00,89.6,66.2,-100.00,South,190,0.4,7.8,46,-99.99,,,-99.99,WSDL version 423,2013-06-23 17:15:00,
2013-06-23 13:21:00,89.9,66.3,-100.00,South,172,0.3,7.2,45,-99.99,,,-99.99,WSDL version 423,2013-06-23 17:21:00,
2013-06-23 13:24:00,90.0,65.9,-100.00,South,188,0.0,2.7,45,0.00,,,0.00,WSDL version 423,2013-06-23 17:24:00,
2013-06-23 13:30:00,90.1,66.5,-100.00,SW,236,0.7,3.1,46,-99.99,,,-99.99,WSDL version 423,2013-06-23 17:30:00,
2013-06-23 13:36:00,90.5,66.5,-100.00,SE,135,0.0,3.1,45,-99.99,,,-99.99,WSDL version 423,2013-06-23 17:36:00,
2013-06-23 13:42:00,90.7,65.8,-100.00,WSW,253,0.0,2.5,44,-99.99,,,-99.99,WSDL version 423,2013-06-23 17:42:00,
2013-06-23 13:45:00,90.5,65.6,-100.00,South,190,0.0,2.5,44,-99.99,,,-99.99,WSDL version 423,2013-06-23 17:45:00,
2013-06-23 13:51:00,90.4,65.6,-100.00,South,175,0.0,1.6,44,-99.99,,,-99.99,WSDL version 423,2013-06-23 17:51:00,
2013-06-23 13:57:00,90.5,65.6,-100.00,SE,135,0.7,7.4,44,-99.99,,,-99.99,WSDL version 423,2013-06-23 17:57:00,
2013-06-23 14:03:00,90.4,65.1,-100.00,SSE,151,0.0,7.4,44,-99.99,,,-99.99,WSDL version 423,2013-06-23 18:03:00,
2013-06-23 14:09:00,90.4,65.4,-100.00,South,173,0.6,4.7,43,-99.99,,,-99.99,WSDL version 423,2013-06-23 18:09:00,
2013-06-23 14:15:00,89.6,64.8,-100.00,SE,143,0.0,4.7,44,-99.99,,,-99.99,WSDL version 423,2013-06-23 18:15:00,
2013-06-23 14:21:00,90.7,66.2,-100.00,SW,219,0.0,1.6,44,-99.99,,,-99.99,WSDL version 423,2013-06-23 18:21:00,
2013-06-23 14:27:00,90.7,65.6,-100.00,SSE,165,0.4,2.0,44,-99.99,,,-99.99,WSDL version 423,2013-06-23 18:27:00,
2013-06-23 14:33:00,91.0,66.1,-100.00,NW,319,0.0,2.0,44,-99.99,,,-99.99,WSDL version 423,2013-06-23 18:33:00,
2013-06-23 14:39:00,92.0,66.8,-100.00,South,191,0.0,0.9,44,-99.99,,,-99.99,WSDL version 423,2013-06-23 18:39:00,
2013-06-23 14:45:00,92.4,66.1,-100.00,SSE,153,0.0,0.9,41,-99.99,,,-99.99,WSDL version 423,2013-06-23 18:45:00,
2013-06-23 14:51:00,92.6,66.7,-100.00,SSW,205,0.0,1.1,43,-99.99,,,-99.99,WSDL version 423,2013-06-23 18:51:00,
2013-06-23 14:57:00,91.4,65.7,-100.00,SW,217,0.0,0.0,43,-99.99,,,-99.99,WSDL version 423,2013-06-23 18:57:00,
2013-06-23 15:03:00,91.9,65.6,-100.00,SW,219,0.5,3.1,43,-99.99,,,-99.99,WSDL version 423,2013-06-23 19:03:00,
2013-06-23 15:09:00,92.2,65.8,-100.00,SSE,158,0.0,2.5,42,-99.99,,,-99.99,WSDL version 423,2013-06-23 19:09:00,
2013-06-23 15:15:00,91.9,65.6,-100.00,SSW,208,0.0,1.3,42,-99.99,,,-99.99,WSDL version 423,2013-06-23 19:15:00,
2013-06-23 15:21:00,92.2,65.8,-100.00,WSW,242,0.0,2.2,42,-99.99,,,-99.99,WSDL version 423,2013-06-23 19:21:00,
2013-06-23 15:27:00,91.3,65.1,-100.00,South,183,0.0,2.2,43,-99.99,,,-99.99,WSDL version 423,2013-06-23 19:27:00,
2013-06-23 15:33:00,92.4,66.0,-100.00,South,180,0.0,1.1,42,-99.99,,,-99.99,WSDL version 423,2013-06-23 19:33:00,
2013-06-23 15:39:00,93.5,66.7,-100.00,West,259,0.0,1.1,41,-99.99,,,-99.99,WSDL version 423,2013-06-23 19:39:00,
2013-06-23 15:45:00,92.8,66.0,-100.00,SSW,206,0.0,0.0,42,-99.99,,,-99.99,WSDL version 423,2013-06-23 19:45:00,
2013-06-23 15:51:00,91.6,64.9,-100.00,WNW,287,0.0,2.9,42,-99.99,,,-99.99,WSDL version 423,2013-06-23 19:51:00,
2013-06-23 15:57:00,90.1,63.9,-100.00,SSW,208,0.0,2.9,42,-99.99,,,-99.99,WSDL version 423,2013-06-23 19:57:00,
2013-06-23 16:03:00,89.4,64.0,-100.00,SE,139,0.0,1.1,43,-99.99,,,-99.99,WSDL version 423,2013-06-23 20:03:00,
2013-06-23 16:09:00,89.2,64.2,-100.00,WSW,253,0.0,0.0,44,-99.99,,,-99.99,WSDL version 423,2013-06-23 20:09:00,
2013-06-23 16:15:00,89.9,64.6,-100.00,SSW,193,0.0,0.0,43,-99.99,,,-99.99,WSDL version 423,2013-06-23 20:15:00,
2013-06-23 16:21:00,91.3,65.7,-100.00,SW,219,0.0,0.0,43,-99.99,,,-99.99,WSDL version 423,2013-06-23 20:21:00,
2013-06-23 16:27:00,90.7,65.0,-100.00,West,267,0.0,2.0,43,-99.99,,,-99.99,WSDL version 423,2013-06-23 20:27:00,
2013-06-23 16:33:00,88.8,64.2,-100.00,South,184,0.0,2.0,45,-99.99,,,-99.99,WSDL version 423,2013-06-23 20:33:00,
2013-06-23 16:39:00,87.5,63.5,-100.00,SW,220,0.0,0.9,45,-99.99,,,-99.99,WSDL version 423,2013-06-23 20:39:00,
2013-06-23 16:45:00,84.7,63.4,-100.00,SSW,205,0.4,3.4,51,-99.99,,,-99.99,WSDL version 423,2013-06-23 20:45:00,
2013-06-23 16:51:00,81.8,63.5,-100.00,North,8,0.0,3.4,55,-99.99,,,-99.99,WSDL version 423,2013-06-23 20:51:00,
2013-06-23 16:57:00,82.7,66.7,-100.00,NW,315,0.0,0.0,59,0.00,,,0.00,WSDL version 423,2013-06-23 20:57:00,
2013-06-23 17:03:00,83.6,68.1,-100.00,NW,315,0.0,0.0,59,-99.99,,,-99.99,WSDL version 423,2013-06-23 21:03:00,
2013-06-23 17:09:00,84.7,69.6,-100.00,NW,309,0.0,0.0,61,0.25,,,0.25,WSDL version 423,2013-06-23 21:09:00,
2013-06-23 17:15:00,85.2,69.8,-100.00,West,264,0.0,0.0,60,-99.99,,,-99.99,WSDL version 423,2013-06-23 21:15:00,
2013-06-23 17:21:00,83.7,68.4,-100.00,SSW,197,0.0,0.0,60,-99.99,,,-99.99,WSDL version 423,2013-06-23 21:21:00,
2013-06-23 17:27:00,82.6,67.7,-100.00,WNW,302,0.0,0.0,61,-99.99,,,-99.99,WSDL version 423,2013-06-23 21:27:00,
2013-06-23 17:33:00,83.5,68.9,-100.00,NW,315,0.0,0.0,62,-99.99,,,-99.99,WSDL version 423,2013-06-23 21:33:00,
2013-06-23 17:39:00,84.5,69.9,-100.00,NNW,345,0.0,0.0,61,-99.99,,,-99.99,WSDL version 423,2013-06-23 21:39:00,
2013-06-23 17:45:00,83.1,68.4,-100.00,SW,221,0.0,0.0,62,-99.99,,,-99.99,WSDL version 423,2013-06-23 21:45:00,
2013-06-23 17:51:00,82.2,67.7,-100.00,NNE,23,0.0,0.9,62,-99.99,,,-99.99,WSDL version 423,2013-06-23 21:51:00,
2013-06-23 17:57:00,81.7,67.4,-100.00,SE,125,0.0,0.0,62,-99.99,,,-99.99,WSDL version 423,2013-06-23 21:57:00,
2013-06-23 18:03:00,81.5,67.3,-100.00,West,278,0.0,0.0,62,0.00,,,0.25,WSDL version 423,2013-06-23 22:03:00,
2013-06-23 18:09:00,81.5,67.2,-100.00,SSW,203,0.0,0.0,62,0.00,,,0.25,WSDL version 423,2013-06-23 22:09:00,
2013-06-23 18:15:00,81.1,66.8,-100.00,NNW,338,0.0,0.0,62,-99.99,,,-99.99,WSDL version 423,2013-06-23 22:15:00,
2013-06-23 18:21:00,80.6,66.5,-100.00,SSE,163,0.0,1.3,63,0.00,,,0.25,WSDL version 423,2013-06-23 22:21:00,
2013-06-23 18:27:00,80.0,66.6,-100.00,South,180,0.0,1.3,64,-99.99,,,-99.99,WSDL version 423,2013-06-23 22:27:00,
2013-06-23 18:33:00,79.2,66.3,-100.00,South,172,0.0,1.1,65,0.00,,,0.25,WSDL version 423,2013-06-23 22:33:00,
2013-06-23 18:39:00,79.1,66.7,-100.00,SSW,194,0.0,2.7,66,-99.99,,,-99.99,WSDL version 423,2013-06-23 22:39:00,
2013-06-23 18:45:00,79.0,66.3,-100.00,SSE,158,0.0,2.7,66,-99.99,,,-99.99,WSDL version 423,2013-06-23 22:45:00,
2013-06-23 18:51:00,78.9,66.4,-100.00,SSE,158,0.0,1.6,66,-99.99,,,-99.99,WSDL version 423,2013-06-23 22:51:00,
2013-06-23 18:57:00,78.9,66.3,-100.00,SSW,203,0.0,0.0,65,-99.99,,,-99.99,WSDL version 423,2013-06-23 22:57:00,
2013-06-23 19:03:00,79.3,66.9,-100.00,WSW,253,0.0,0.0,66,-99.99,,,-99.99,WSDL version 423,2013-06-23 23:03:00,
2013-06-23 19:09:00,78.9,66.6,-100.00,SE,141,0.0,0.0,66,-99.99,,,-99.99,WSDL version 423,2013-06-23 23:09:00,
2013-06-23 19:15:00,78.4,66.2,-100.00,WSW,251,0.0,0.0,67,-99.99,,,-99.99,WSDL version 423,2013-06-23 23:15:00,
2013-06-23 19:21:00,77.9,66.0,-100.00,South,180,0.0,0.0,67,0.00,,,0.25,WSDL version 423,2013-06-23 23:21:00,
2013-06-23 19:27:00,77.6,66.0,-100.00,SSE,163,0.0,0.0,68,-99.99,,,-99.99,WSDL version 423,2013-06-23 23:27:00,
2013-06-23 19:33:00,77.4,66.0,-100.00,South,180,0.0,0.9,68,0.00,,,0.25,WSDL version 423,2013-06-23 23:33:00,
2013-06-23 19:39:00,77.3,66.0,-100.00,WSW,250,0.0,0.0,68,-99.99,,,-99.99,WSDL version 423,2013-06-23 23:39:00,
2013-06-23 19:45:00,77.0,65.8,-100.00,North,360,0.0,0.0,69,0.04,,,0.29,WSDL version 423,2013-06-23 23:45:00,
2013-06-23 19:51:00,76.6,65.7,-100.00,North,360,0.0,0.0,69,-99.99,,,-99.99,WSDL version 423,2013-06-23 23:51:00,
2013-06-23 19:57:00,76.6,66.3,-100.00,East,90,0.0,0.0,71,-99.99,,,-99.99,WSDL version 423,2013-06-23 23:57:00,
2013-06-23 20:03:00,76.6,66.1,-100.00,East,90,0.0,0.0,70,-99.99,,,-99.99,WSDL version 423,2013-06-24 00:03:00,
2013-06-23 20:09:00,76.5,66.4,-100.00,East,90,0.0,0.0,71,-99.99,,,-99.99,WSDL version 423,2013-06-24 00:09:00,
2013-06-23 20:15:00,76.5,66.4,-100.00,SE,132,0.0,0.0,71,0.04,,,0.29,WSDL version 423,2013-06-24 00:15:00,
2013-06-23 20:21:00,76.4,66.3,-100.00,SE,135,0.0,0.0,71,0.04,,,0.29,WSDL version 423,2013-06-24 00:21:00,
2013-06-23 20:27:00,76.1,66.0,-100.00,South,180,0.0,0.0,71,0.04,,,0.29,WSDL version 423,2013-06-24 00:27:00,
2013-06-23 20:33:00,75.7,66.1,-100.00,South,180,0.0,0.0,72,-99.99,,,-99.99,WSDL version 423,2013-06-24 00:33:00,
2013-06-23 20:39:00,75.6,66.3,-100.00,South,180,0.0,0.0,73,-99.99,,,-99.99,WSDL version 423,2013-06-24 00:39:00,
2013-06-23 20:45:00,75.6,66.3,-100.00,South,180,0.0,0.0,73,0.00,,,0.29,WSDL version 423,2013-06-24 00:45:00,
2013-06-23 20:51:00,75.6,66.7,-100.00,SSE,158,0.0,0.0,74,-99.99,,,-99.99,WSDL version 423,2013-06-24 00:51:00,
2013-06-23 20:57:00,75.6,66.7,-100.00,SE,135,0.0,0.0,74,0.00,,,0.29,WSDL version 423,2013-06-24 00:57:00,
2013-06-23 21:03:00,75.4,66.5,-100.00,SE,135,0.0,0.0,74,0.00,,,0.29,WSDL version 423,2013-06-24 01:03:00,
2013-06-23 21:09:00,75.4,66.5,-100.00,SE,135,0.0,0.0,74,0.00,,,0.29,WSDL version 423,2013-06-24 01:09:00,
2013-06-23 21:15:00,75.4,66.8,-100.00,South,169,0.0,0.0,75,0.00,,,0.29,WSDL version 423,2013-06-24 01:15:00,
2013-06-23 21:21:00,75.4,66.9,-100.00,SE,143,0.0,0.0,75,0.00,,,0.29,WSDL version 423,2013-06-24 01:21:00,
2013-06-23 21:27:00,75.4,66.9,-100.00,South,180,0.0,0.9,75,0.00,,,0.29,WSDL version 423,2013-06-24 01:27:00,
2013-06-23 21:33:00,75.4,66.9,-100.00,SSE,163,0.0,0.0,75,0.00,,,0.29,WSDL version 423,2013-06-24 01:33:00,
2013-06-23 21:39:00,75.3,66.8,-100.00,SE,146,0.0,0.0,75,0.00,,,0.29,WSDL version 423,2013-06-24 01:39:00,
2013-06-23 21:45:00,75.1,67.1,-100.00,East,90,0.0,0.0,76,0.00,,,0.29,WSDL version 423,2013-06-24 01:45:00,
2013-06-23 21:51:00,75.0,66.9,-100.00,SE,135,0.0,0.0,76,0.00,,,0.29,WSDL version 423,2013-06-24 01:51:00,
2013-06-23 21:57:00,74.8,67.1,-100.00,SE,124,0.0,0.0,77,0.00,,,0.29,WSDL version 423,2013-06-24 01:57:00,
2013-06-23 22:03:00,74.7,66.9,-100.00,SSW,200,0.0,0.0,77,0.00,,,0.29,WSDL version 423,2013-06-24 02:03:00,
2013-06-23 22:09:00,74.5,66.6,-100.00,SSW,203,0.0,0.0,76,0.00,,,0.29,WSDL version 423,2013-06-24 02:09:00,
2013-06-23 22:15:00,74.4,66.5,-100.00,SSW,203,0.0,0.0,77,0.00,,,0.29,WSDL version 423,2013-06-24 02:15:00,
2013-06-23 22:21:00,74.3,66.6,-100.00,South,180,0.0,0.0,77,0.00,,,0.29,WSDL version 423,2013-06-24 02:21:00,
2013-06-23 22:27:00,74.1,66.4,-100.00,South,180,0.0,0.0,77,0.00,,,0.29,WSDL version 423,2013-06-24 02:27:00,
2013-06-23 22:33:00,73.9,66.3,-100.00,South,180,0.0,0.0,77,0.00,,,0.29,WSDL version 423,2013-06-24 02:33:00,
2013-06-23 22:39:00,73.8,66.2,-100.00,South,180,0.0,0.0,77,0.00,,,0.29,WSDL version 423,2013-06-24 02:39:00,
2013-06-23 22:45:00,73.8,66.1,-100.00,South,180,0.0,0.0,77,0.00,,,0.29,WSDL version 423,2013-06-24 02:45:00,
2013-06-23 22:51:00,73.6,66.2,-100.00,South,180,0.0,0.0,78,0.00,,,0.29,WSDL version 423,2013-06-24 02:51:00,
2013-06-23 22:57:00,73.6,66.3,-100.00,South,180,0.0,0.0,78,0.00,,,0.29,WSDL version 423,2013-06-24 02:57:00,
2013-06-23 23:03:00,73.6,66.3,-100.00,East,96,0.0,0.0,78,0.00,,,0.29,WSDL version 423,2013-06-24 03:03:00,
2013-06-23 23:09:00,73.4,66.1,-100.00,ESE,113,0.0,0.0,78,0.00,,,0.29,WSDL version 423,2013-06-24 03:09:00,
2013-06-23 23:15:00,73.3,66.3,-100.00,ESE,113,0.0,0.0,79,-99.99,,,-99.99,WSDL version 423,2013-06-24 03:15:00,
2013-06-23 23:21:00,73.2,66.3,-100.00,ESE,113,0.0,0.0,79,-99.99,,,-99.99,WSDL version 423,2013-06-24 03:21:00,
2013-06-23 23:27:00,73.1,66.2,-100.00,SE,135,0.0,0.0,79,0.00,,,0.29,WSDL version 423,2013-06-24 03:27:00,
2013-06-23 23:33:00,73.2,66.3,-100.00,SE,135,0.0,0.0,79,0.00,,,0.29,WSDL version 423,2013-06-24 03:33:00,
2013-06-23 23:39:00,73.2,66.3,-100.00,SSE,152,0.0,1.1,79,0.00,,,0.29,WSDL version 423,2013-06-24 03:39:00,
2013-06-23 23:45:00,73.2,66.5,-100.00,South,180,0.0,1.1,80,0.00,,,0.29,WSDL version 423,2013-06-24 03:45:00,
2013-06-23 23:51:00,73.1,66.5,-100.00,West,270,0.0,0.9,80,-99.99,,,-99.99,WSDL version 423,2013-06-24 03:51:00,
2013-06-23 23:57:00,73.0,66.5,-100.00,South,180,0.0,0.9,80,0.00,,,0.29,WSDL version 423,2013-06-24 03:57:00,